Time,TemperatureF,DewpointF,PressureIn,WindDirection,WindDirectionDegrees,WindSpeedMPH,WindSpeedGustMPH,Humidity,HourlyPrecipIn,Conditions,Clouds,dailyrainin,SolarRadiationWatts/m^2,SoftwareType,DateUTC
2013-10-09 00:02:00,59.0,51.1,30.18,NNE,17,9.0,10.0,75,0.00,,,0.00,0,Wunderground v.1.15,2013-10-09 04:02:00,
2013-10-09 00:06:00,59.0,51.1,30.18,NE,35,8.0,10.0,75,0.00,,,0.00,0,Wunderground v.1.15,2013-10-09 04:06:00,
2013-10-09 00:08:00,59.0,51.1,30.18,North,6,9.0,12.0,75,0.00,,,0.00,0,Wunderground v.1.15,2013-10-09 04:08:00,
2013-10-09 00:12:00,59.0,51.1,30.18,NW,312,8.0,12.0,75,0.00,,,0.00,0,Wunderground v.1.15,2013-10-09 04:12:00,
2013-10-09 00:14:00,59.0,51.1,30.18,NNE,24,8.0,12.0,75,0.00,,,0.00,0,Wunderground v.1.15,2013-10-09 04:14:00,
2013-10-09 00:18:00,59.0,51.1,30.17,NNW,347,8.0,12.0,75,0.00,,,0.00,0,Wunderground v.1.15,2013-10-09 04:18:00,
2013-10-09 00:24:00,58.9,51.0,30.17,NE,40,9.0,13.0,75,0.00,,,0.00,0,Wunderground v.1.15,2013-10-09 04:24:00,
2013-10-09 00:30:00,58.9,51.3,30.17,NE,44,9.0,12.0,76,0.00,,,0.00,0,Wunderground v.1.15,2013-10-09 04:30:00,
2013-10-09 00:36:00,58.9,51.3,30.17,NNE,24,8.0,12.0,76,0.00,,,0.00,0,Wunderground v.1.15,2013-10-09 04:36:00,
2013-10-09 00:42:00,58.9,51.3,30.17,NNE,31,5.0,6.0,76,0.00,,,0.00,0,Wunderground v.1.15,2013-10-09 04:42:00,
2013-10-09 00:48:00,58.9,51.3,30.18,North,1,4.0,6.0,76,0.00,,,0.00,0,Wunderground v.1.15,2013-10-09 04:48:00,
2013-10-09 00:54:00,58.9,51.3,30.18,NE,44,5.0,7.0,76,0.00,,,0.00,0,Wunderground v.1.15,2013-10-09 04:54:00,
2013-10-09 01:00:00,58.9,51.7,30.18,NE,37,7.0,7.0,77,0.00,,,0.00,0,Wunderground v.1.15,2013-10-09 05:00:00,
2013-10-09 01:06:00,58.9,51.7,30.18,NNE,32,7.0,7.0,77,0.00,,,0.00,0,Wunderground v.1.15,2013-10-09 05:06:00,
2013-10-09 01:12:00,58.7,51.5,30.18,NE,38,6.0,7.0,77,0.00,,,0.00,0,Wunderground v.1.15,2013-10-09 05:12:00,
2013-10-09 01:18:00,58.7,51.9,30.18,NNE,30,7.0,12.0,78,0.00,,,0.00,0,Wunderground v.1.15,2013-10-09 05:18:00,
2013-10-09 01:24:00,58.7,51.9,30.18,NNE,31,8.0,12.0,78,0.00,,,0.00,0,Wunderground v.1.15,2013-10-09 05:24:00,
2013-10-09 01:30:00,58.7,51.9,30.17,NNE,21,8.0,8.0,78,0.00,,,0.00,0,Wunderground v.1.15,2013-10-09 05:30:00,
2013-10-09 01:36:00,58.7,51.9,30.17,NNE,17,7.0,10.0,78,0.00,,,0.00,0,Wunderground v.1.15,2013-10-09 05:36:00,
2013-10-09 01:42:00,58.7,51.9,30.17,NNE,32,8.0,8.0,78,0.00,,,0.00,0,Wunderground v.1.15,2013-10-09 05:42:00,
2013-10-09 01:48:00,58.7,51.9,30.17,NNE,24,10.0,13.0,78,0.00,,,0.00,0,Wunderground v.1.15,2013-10-09 05:48:00,
2013-10-09 01:54:00,58.7,51.9,30.17,NE,40,11.0,13.0,78,0.00,,,0.00,0,Wunderground v.1.15,2013-10-09 05:54:00,
2013-10-09 02:00:00,58.7,51.9,30.17,NE,55,10.0,12.0,78,0.00,,,0.00,0,Wunderground v.1.15,2013-10-09 06:00:00,
2013-10-09 02:06:00,58.7,51.9,30.17,North,11,8.0,12.0,78,0.00,,,0.00,0,Wunderground v.1.15,2013-10-09 06:06:00,
2013-10-09 02:12:00,58.7,51.9,30.17,NNE,13,9.0,10.0,78,0.00,,,0.00,0,Wunderground v.1.15,2013-10-09 06:12:00,
2013-10-09 02:18:00,58.9,52.1,30.16,NNE,31,9.0,16.0,78,0.00,,,0.00,0,Wunderground v.1.15,2013-10-09 06:18:00,
2013-10-09 02:24:00,58.7,51.9,30.16,NNE,32,10.0,10.0,78,0.00,,,0.00,0,Wunderground v.1.15,2013-10-09 06:24:00,
2013-10-09 02:30:00,58.7,52.2,30.16,ENE,58,9.0,10.0,79,0.00,,,0.00,0,Wunderground v.1.15,2013-10-09 06:30:00,
2013-10-09 02:36:00,58.7,52.2,30.16,NE,55,10.0,10.0,79,0.00,,,0.00,0,Wunderground v.1.15,2013-10-09 06:36:00,
2013-10-09 02:42:00,58.7,52.2,30.16,NE,56,9.0,12.0,79,0.00,,,0.00,0,Wunderground v.1.15,2013-10-09 06:42:00,
2013-10-09 02:48:00,58.7,52.2,30.16,NNE,27,8.0,12.0,79,0.00,,,0.00,0,Wunderground v.1.15,2013-10-09 06:48:00,
2013-10-09 02:54:00,58.7,52.2,30.16,NE,56,7.0,10.0,79,0.00,,,0.00,0,Wunderground v.1.15,2013-10-09 06:54:00,
2013-10-09 03:00:00,58.7,52.2,30.15,NNE,25,7.0,10.0,79,0.00,,,0.00,0,Wunderground v.1.15,2013-10-09 07:00:00,
2013-10-09 03:06:00,58.7,51.9,30.15,SE,131,7.0,10.0,78,0.00,,,0.00,0,Wunderground v.1.15,2013-10-09 07:06:00,
2013-10-09 03:12:00,58.7,51.9,30.15,NNE,24,7.0,7.0,78,0.00,,,0.00,0,Wunderground v.1.15,2013-10-09 07:12:00,
2013-10-09 03:18:00,58.6,51.8,30.14,NNE,16,6.0,10.0,78,0.00,,,0.00,0,Wunderground v.1.15,2013-10-09 07:18:00,
2013-10-09 03:24:00,58.6,51.4,30.14,North,3,7.0,11.0,77,0.00,,,0.00,0,Wunderground v.1.15,2013-10-09 07:24:00,
2013-10-09 03:30:00,58.4,51.2,30.15,NE,42,7.0,7.0,77,0.00,,,0.00,0,Wunderground v.1.15,2013-10-09 07:30:00,
2013-10-09 03:36:00,58.4,51.2,30.15,NNE,27,7.0,11.0,77,0.00,,,0.00,0,Wunderground v.1.15,2013-10-09 07:36:00,
2013-10-09 03:42:00,58.6,51.1,30.15,NE,52,8.0,11.0,76,0.00,,,0.00,0,Wunderground v.1.15,2013-10-09 07:42:00,
2013-10-09 03:48:00,58.6,51.1,30.14,NE,41,9.0,11.0,76,0.00,,,0.00,0,Wunderground v.1.15,2013-10-09 07:48:00,
2013-10-09 03:54:00,58.6,51.1,30.14,North,0,7.0,8.0,76,0.00,,,0.00,0,Wunderground v.1.15,2013-10-09 07:54:00,
2013-10-09 04:00:00,58.4,50.9,30.13,North,0,7.0,8.0,76,0.00,,,0.00,0,Wunderground v.1.15,2013-10-09 08:00:00,
2013-10-09 04:06:00,58.3,50.8,30.13,NNE,18,7.0,10.0,76,0.00,,,0.00,0,Wunderground v.1.15,2013-10-09 08:06:00,
2013-10-09 04:12:00,58.3,51.1,30.13,North,11,8.0,10.0,77,0.00,,,0.00,0,Wunderground v.1.15,2013-10-09 08:12:00,
2013-10-09 04:18:00,58.1,50.9,30.13,North,0,8.0,10.0,77,0.00,,,0.00,0,Wunderground v.1.15,2013-10-09 08:18:00,
2013-10-09 04:24:00,58.1,50.9,30.13,NNE,30,7.0,8.0,77,0.00,,,0.00,0,Wunderground v.1.15,2013-10-09 08:24:00,
2013-10-09 04:30:00,58.1,50.9,30.13,NNW,342,6.0,7.0,77,0.00,,,0.00,0,Wunderground v.1.15,2013-10-09 08:30:00,
2013-10-09 04:36:00,58.1,50.9,30.13,NNE,14,6.0,7.0,77,0.00,,,0.00,0,Wunderground v.1.15,2013-10-09 08:36:00,
2013-10-09 04:42:00,58.0,50.8,30.13,North,0,6.0,10.0,77,0.00,,,0.00,0,Wunderground v.1.15,2013-10-09 08:42:00,
2013-10-09 04:48:00,57.8,50.6,30.13,North,357,8.0,10.0,77,0.00,,,0.00,0,Wunderground v.1.15,2013-10-09 08:48:00,
2013-10-09 04:54:00,57.6,50.8,30.13,NNE,25,7.0,8.0,78,0.00,,,0.00,0,Wunderground v.1.15,2013-10-09 08:54:00,
2013-10-09 05:00:00,57.5,50.7,30.14,North,359,6.0,7.0,78,0.00,,,0.00,0,Wunderground v.1.15,2013-10-09 09:00:00,
2013-10-09 05:06:00,57.3,50.8,30.14,NE,35,6.0,7.0,79,0.00,,,0.00,0,Wunderground v.1.15,2013-10-09 09:06:00,
2013-10-09 05:12:00,57.3,50.8,30.14,North,359,5.0,6.0,79,0.00,,,0.00,0,Wunderground v.1.15,2013-10-09 09:12:00,
2013-10-09 05:18:00,57.3,50.8,30.15,North,8,5.0,7.0,79,0.00,,,0.00,0,Wunderground v.1.15,2013-10-09 09:18:00,
2013-10-09 05:24:00,57.3,50.8,30.15,North,3,6.0,6.0,79,0.00,,,0.00,0,Wunderground v.1.15,2013-10-09 09:24:00,
2013-10-09 05:30:00,57.5,51.0,30.14,North,0,7.0,7.0,79,0.00,,,0.00,0,Wunderground v.1.15,2013-10-09 09:30:00,
2013-10-09 05:36:00,57.6,51.1,30.14,North,0,7.0,10.0,79,0.00,,,0.00,0,Wunderground v.1.15,2013-10-09 09:36:00,
2013-10-09 05:42:00,57.6,51.1,30.14,North,0,6.0,6.0,79,0.00,,,0.00,0,Wunderground v.1.15,2013-10-09 09:42:00,
2013-10-09 05:48:00,57.8,51.3,30.14,NNE,16,6.0,10.0,79,0.00,,,0.00,0,Wunderground v.1.15,2013-10-09 09:48:00,
2013-10-09 05:54:00,57.8,51.0,30.14,NNE,13,7.0,8.0,78,0.00,,,0.00,0,Wunderground v.1.15,2013-10-09 09:54:00,
2013-10-09 06:00:00,57.8,51.0,30.14,NNE,18,6.0,7.0,78,0.00,,,0.00,0,Wunderground v.1.15,2013-10-09 10:00:00,
2013-10-09 06:06:00,58.0,51.2,30.14,North,3,7.0,9.0,78,0.00,,,0.00,0,Wunderground v.1.15,2013-10-09 10:06:00,
2013-10-09 06:12:00,58.0,51.2,30.14,North,3,7.0,8.0,78,0.00,,,0.00,0,Wunderground v.1.15,2013-10-09 10:12:00,
2013-10-09 06:18:00,58.0,51.2,30.15,NNE,21,7.0,9.0,78,0.00,,,0.00,0,Wunderground v.1.15,2013-10-09 10:18:00,
2013-10-09 06:24:00,58.0,51.2,30.15,North,11,7.0,7.0,78,0.00,,,0.00,0,Wunderground v.1.15,2013-10-09 10:24:00,
2013-10-09 06:30:00,58.1,51.3,30.15,North,1,6.0,8.0,78,0.00,,,0.00,0,Wunderground v.1.15,2013-10-09 10:30:00,
2013-10-09 06:36:00,58.1,50.9,30.15,NW,312,7.0,11.0,77,0.00,,,0.00,0,Wunderground v.1.15,2013-10-09 10:36:00,
2013-10-09 06:42:00,58.1,50.9,30.15,NNE,32,8.0,11.0,77,0.00,,,0.00,0,Wunderground v.1.15,2013-10-09 10:42:00,
2013-10-09 06:48:00,58.1,50.9,30.15,NNE,28,9.0,11.0,77,0.00,,,0.00,0,Wunderground v.1.15,2013-10-09 10:48:00,
2013-10-09 06:54:00,58.1,51.3,30.15,North,0,8.0,10.0,78,0.00,,,0.00,0,Wunderground v.1.15,2013-10-09 10:54:00,
2013-10-09 07:00:00,58.1,51.3,30.14,North,0,8.0,8.0,78,0.00,,,0.00,0,Wunderground v.1.15,2013-10-09 11:00:00,
2013-10-09 07:06:00,58.1,51.3,30.14,North,1,8.0,10.0,78,0.00,,,0.00,0,Wunderground v.1.15,2013-10-09 11:06:00,
2013-10-09 07:12:00,58.1,51.3,30.14,NE,47,9.0,10.0,78,0.00,,,0.00,0,Wunderground v.1.15,2013-10-09 11:12:00,
2013-10-09 07:18:00,58.0,51.2,30.14,North,353,8.0,10.0,78,0.00,,,0.00,0,Wunderground v.1.15,2013-10-09 11:18:00,
2013-10-09 07:24:00,58.0,51.2,30.14,NE,42,7.0,9.0,78,0.00,,,0.00,0,Wunderground v.1.15,2013-10-09 11:24:00,
2013-10-09 07:30:00,58.0,51.5,30.15,NNE,20,8.0,8.0,79,0.00,,,0.00,5,Wunderground v.1.15,2013-10-09 11:30:00,
2013-10-09 07:36:00,58.0,51.5,30.15,ENE,72,7.0,8.0,79,0.00,,,0.00,7,Wunderground v.1.15,2013-10-09 11:36:00,
2013-10-09 07:42:00,58.0,51.5,30.15,North,357,8.0,12.0,79,0.00,,,0.00,7,Wunderground v.1.15,2013-10-09 11:42:00,
2013-10-09 07:48:00,58.1,51.6,30.15,North,8,9.0,12.0,79,0.00,,,0.00,19,Wunderground v.1.15,2013-10-09 11:48:00,
2013-10-09 07:54:00,58.3,51.8,30.15,North,3,9.0,12.0,79,0.00,,,0.00,26,Wunderground v.1.15,2013-10-09 11:54:00,
2013-10-09 08:00:00,58.4,51.9,30.15,North,4,9.0,9.0,79,0.00,,,0.00,42,Wunderground v.1.15,2013-10-09 12:00:00,
2013-10-09 08:06:00,58.6,52.1,30.15,NNE,18,8.0,13.0,79,0.00,,,0.00,42,Wunderground v.1.15,2013-10-09 12:06:00,
2013-10-09 08:12:00,58.6,52.1,30.15,North,0,8.0,9.0,79,0.00,,,0.00,40,Wunderground v.1.15,2013-10-09 12:12:00,
2013-10-09 08:18:00,58.7,52.5,30.15,North,359,9.0,14.0,80,0.00,,,0.00,44,Wunderground v.1.15,2013-10-09 12:18:00,
2013-10-09 08:24:00,58.7,52.5,30.15,North,0,9.0,12.0,80,0.00,,,0.00,49,Wunderground v.1.15,2013-10-09 12:24:00,
2013-10-09 08:30:00,58.9,53.7,30.15,NNE,27,7.0,7.0,83,0.00,,,0.00,63,Wunderground v.1.15,2013-10-09 12:30:00,
2013-10-09 08:36:00,58.6,53.8,30.15,NE,45,7.0,12.0,84,0.00,,,0.00,74,Wunderground v.1.15,2013-10-09 12:36:00,
2013-10-09 08:42:00,58.3,54.1,30.15,NNE,28,8.0,9.0,86,0.00,,,0.00,86,Wunderground v.1.15,2013-10-09 12:42:00,
2013-10-09 08:48:00,58.0,53.8,30.15,NE,35,8.0,13.0,86,0.00,,,0.00,76,Wunderground v.1.15,2013-10-09 12:48:00,
2013-10-09 08:54:00,57.8,53.6,30.15,NE,37,9.0,9.0,86,0.00,,,0.00,60,Wunderground v.1.15,2013-10-09 12:54:00,
2013-10-09 09:00:00,57.6,53.4,30.16,NNE,24,9.0,9.0,86,0.00,,,0.00,63,Wunderground v.1.15,2013-10-09 13:00:00,
2013-10-09 09:06:00,57.6,53.4,30.16,North,6,8.0,13.0,86,0.00,,,0.00,56,Wunderground v.1.15,2013-10-09 13:06:00,
2013-10-09 09:12:00,57.8,53.3,30.16,NNE,17,9.0,13.0,85,0.00,,,0.00,60,Wunderground v.1.15,2013-10-09 13:12:00,
2013-10-09 09:18:00,58.0,53.5,30.16,North,0,8.0,13.0,85,0.00,,,0.00,74,Wunderground v.1.15,2013-10-09 13:18:00,
2013-10-09 09:24:00,58.1,53.3,30.16,North,349,8.0,10.0,84,0.00,,,0.00,76,Wunderground v.1.15,2013-10-09 13:24:00,
2013-10-09 09:30:00,58.3,53.5,30.16,NNE,28,8.0,10.0,84,0.00,,,0.00,76,Wunderground v.1.15,2013-10-09 13:30:00,
2013-10-09 09:36:00,58.4,53.6,30.16,NNE,30,9.0,10.0,84,0.00,,,0.00,69,Wunderground v.1.15,2013-10-09 13:36:00,
2013-10-09 09:42:00,58.7,53.9,30.16,North,0,8.0,8.0,84,0.00,,,0.00,84,Wunderground v.1.15,2013-10-09 13:42:00,
2013-10-09 09:48:00,58.9,53.7,30.17,North,3,8.0,10.0,83,0.00,,,0.00,100,Wunderground v.1.15,2013-10-09 13:48:00,
2013-10-09 09:54:00,59.2,54.0,30.17,NNW,336,8.0,10.0,83,0.00,,,0.00,102,Wunderground v.1.15,2013-10-09 13:54:00,
2013-10-09 10:00:00,59.5,54.3,30.17,NW,313,8.0,8.0,83,0.00,,,0.00,111,Wunderground v.1.15,2013-10-09 14:00:00,
2013-10-09 10:06:00,59.6,54.1,30.17,North,8,8.0,8.0,82,0.00,,,0.00,114,Wunderground v.1.15,2013-10-09 14:06:00,
2013-10-09 10:12:00,59.8,54.3,30.17,NNE,18,8.0,8.0,82,0.00,,,0.00,99,Wunderground v.1.15,2013-10-09 14:12:00,
2013-10-09 10:18:00,59.9,54.1,30.17,North,359,7.0,10.0,81,0.00,,,0.00,91,Wunderground v.1.15,2013-10-09 14:18:00,
2013-10-09 10:24:00,59.9,54.1,30.17,North,359,7.0,10.0,81,0.00,,,0.00,111,Wunderground v.1.15,2013-10-09 14:24:00,
2013-10-09 10:30:00,60.1,54.2,30.17,NNE,21,8.0,8.0,81,0.00,,,0.00,99,Wunderground v.1.15,2013-10-09 14:30:00,
2013-10-09 10:36:00,60.2,54.3,30.17,North,7,8.0,12.0,81,0.00,,,0.00,95,Wunderground v.1.15,2013-10-09 14:36:00,
2013-10-09 10:42:00,60.2,54.3,30.17,NE,42,9.0,11.0,81,0.00,,,0.00,104,Wunderground v.1.15,2013-10-09 14:42:00,
2013-10-09 10:48:00,60.2,54.7,30.17,NE,35,8.0,11.0,82,0.00,,,0.00,123,Wunderground v.1.15,2013-10-09 14:48:00,
2013-10-09 10:54:00,60.2,55.0,30.17,NE,37,7.0,10.0,83,0.00,,,0.00,123,Wunderground v.1.15,2013-10-09 14:54:00,
2013-10-09 11:00:00,60.1,55.2,30.17,North,7,8.0,8.0,84,0.00,,,0.01,134,Wunderground v.1.15,2013-10-09 15:00:00,
2013-10-09 11:06:00,59.8,55.6,30.17,North,356,8.0,10.0,86,0.00,,,0.01,150,Wunderground v.1.15,2013-10-09 15:06:00,
2013-10-09 11:12:00,59.6,56.0,30.17,North,11,7.0,8.0,88,0.05,,,0.02,141,Wunderground v.1.15,2013-10-09 15:12:00,
2013-10-09 11:18:00,59.3,55.7,30.17,NNE,16,7.0,10.0,88,0.05,,,0.02,141,Wunderground v.1.15,2013-10-09 15:18:00,
2013-10-09 11:24:00,59.3,56.4,30.17,North,354,6.0,8.0,90,0.04,,,0.02,123,Wunderground v.1.15,2013-10-09 15:24:00,
2013-10-09 11:30:00,59.2,56.3,30.17,NNE,23,6.0,6.0,90,0.00,,,0.02,93,Wunderground v.1.15,2013-10-09 15:30:00,
2013-10-09 11:36:00,59.0,56.4,30.17,North,0,7.0,10.0,91,0.00,,,0.02,111,Wunderground v.1.15,2013-10-09 15:36:00,
2013-10-09 11:42:00,58.9,56.3,30.17,North,7,8.0,8.0,91,0.00,,,0.02,91,Wunderground v.1.15,2013-10-09 15:42:00,
2013-10-09 11:48:00,58.7,56.1,30.17,North,359,8.0,8.0,91,0.00,,,0.02,118,Wunderground v.1.15,2013-10-09 15:48:00,
2013-10-09 11:54:00,58.6,56.3,30.17,North,3,8.0,8.0,92,0.00,,,0.02,100,Wunderground v.1.15,2013-10-09 15:54:00,
2013-10-09 12:00:00,58.7,56.4,30.17,NNE,14,8.0,9.0,92,0.00,,,0.02,118,Wunderground v.1.15,2013-10-09 16:00:00,
2013-10-09 12:06:00,58.9,56.9,30.17,NE,47,8.0,13.0,93,0.00,,,0.02,234,Wunderground v.1.15,2013-10-09 16:06:00,
2013-10-09 12:12:00,59.2,56.9,30.17,North,8,8.0,10.0,92,0.00,,,0.02,213,Wunderground v.1.15,2013-10-09 16:12:00,
2013-10-09 12:18:00,59.6,57.3,30.16,NNE,32,8.0,10.0,92,0.00,,,0.02,218,Wunderground v.1.15,2013-10-09 16:18:00,
2013-10-09 12:24:00,59.8,57.2,30.16,NNE,18,8.0,12.0,91,0.00,,,0.02,199,Wunderground v.1.15,2013-10-09 16:24:00,
2013-10-09 12:31:00,60.1,57.5,30.16,NE,42,8.0,15.0,91,0.00,,,0.02,234,Wunderground v.1.15,2013-10-09 16:31:00,
2013-10-09 12:36:00,60.5,57.2,30.16,NW,326,8.0,15.0,89,0.00,,,0.02,273,Wunderground v.1.15,2013-10-09 16:36:00,
2013-10-09 12:42:00,61.0,57.4,30.16,NNE,14,8.0,8.0,88,0.00,,,0.02,303,Wunderground v.1.15,2013-10-09 16:42:00,
2013-10-09 12:48:00,61.3,57.4,30.15,North,359,8.0,10.0,87,0.00,,,0.02,301,Wunderground v.1.15,2013-10-09 16:48:00,
2013-10-09 12:54:00,61.6,57.4,30.15,North,8,8.0,10.0,86,0.00,,,0.02,301,Wunderground v.1.15,2013-10-09 16:54:00,
2013-10-09 13:00:00,62.0,57.4,30.15,North,4,9.0,9.0,85,0.00,,,0.02,208,Wunderground v.1.15,2013-10-09 17:00:00,
2013-10-09 13:06:00,62.1,57.2,30.15,NNE,28,7.0,9.0,84,0.00,,,0.02,199,Wunderground v.1.15,2013-10-09 17:06:00,
2013-10-09 13:12:00,62.0,56.8,30.15,NNE,18,9.0,10.0,83,0.00,,,0.02,216,Wunderground v.1.15,2013-10-09 17:12:00,
2013-10-09 13:18:00,62.1,56.9,30.15,NW,312,11.0,12.0,83,0.00,,,0.02,208,Wunderground v.1.15,2013-10-09 17:18:00,
2013-10-09 13:24:00,62.3,56.7,30.15,NNE,18,10.0,14.0,82,0.00,,,0.02,153,Wunderground v.1.15,2013-10-09 17:24:00,
2013-10-09 13:30:00,62.3,56.7,30.14,North,359,8.0,8.0,82,0.00,,,0.02,144,Wunderground v.1.15,2013-10-09 17:30:00,
2013-10-09 13:36:00,62.3,56.7,30.14,NW,312,8.0,10.0,82,0.00,,,0.02,146,Wunderground v.1.15,2013-10-09 17:36:00,
2013-10-09 13:42:00,62.1,56.2,30.14,North,0,8.0,8.0,81,0.00,,,0.02,120,Wunderground v.1.15,2013-10-09 17:42:00,
2013-10-09 13:48:00,62.1,56.5,30.14,North,4,9.0,10.0,82,0.00,,,0.02,93,Wunderground v.1.15,2013-10-09 17:48:00,
2013-10-09 13:54:00,62.0,56.4,30.14,NNE,27,9.0,10.0,82,0.00,,,0.02,118,Wunderground v.1.15,2013-10-09 17:54:00,
2013-10-09 14:00:00,62.0,56.4,30.14,NE,51,8.0,12.0,82,0.00,,,0.02,84,Wunderground v.1.15,2013-10-09 18:00:00,
2013-10-09 14:06:00,62.0,56.4,30.14,NNE,27,8.0,12.0,82,0.00,,,0.02,72,Wunderground v.1.15,2013-10-09 18:06:00,
2013-10-09 14:12:00,61.8,56.2,30.14,North,357,9.0,12.0,82,0.00,,,0.02,74,Wunderground v.1.15,2013-10-09 18:12:00,
2013-10-09 14:18:00,61.6,56.0,30.14,North,0,10.0,14.0,82,0.00,,,0.02,86,Wunderground v.1.15,2013-10-09 18:18:00,
2013-10-09 14:24:00,61.6,56.0,30.14,North,8,9.0,10.0,82,0.00,,,0.02,102,Wunderground v.1.15,2013-10-09 18:24:00,
2013-10-09 14:30:00,61.6,56.0,30.14,North,8,11.0,12.0,82,0.00,,,0.02,90,Wunderground v.1.15,2013-10-09 18:30:00,
2013-10-09 14:36:00,61.6,56.0,30.14,NE,40,11.0,12.0,82,0.00,,,0.02,121,Wunderground v.1.15,2013-10-09 18:36:00,
2013-10-09 14:42:00,61.5,56.0,30.14,NNE,23,11.0,12.0,82,0.00,,,0.02,109,Wunderground v.1.15,2013-10-09 18:42:00,
2013-10-09 14:48:00,61.5,56.0,30.14,NE,41,11.0,13.0,82,0.00,,,0.02,116,Wunderground v.1.15,2013-10-09 18:48:00,
2013-10-09 14:54:00,61.5,56.0,30.14,North,0,11.0,12.0,82,0.00,,,0.02,90,Wunderground v.1.15,2013-10-09 18:54:00,
2013-10-09 15:00:00,61.3,55.8,30.14,North,0,10.0,10.0,82,0.00,,,0.02,84,Wunderground v.1.15,2013-10-09 19:00:00,
2013-10-09 15:06:00,61.3,55.8,30.14,North,359,9.0,10.0,82,0.00,,,0.02,86,Wunderground v.1.15,2013-10-09 19:06:00,
2013-10-09 15:12:00,61.3,55.8,30.14,NE,47,12.0,12.0,82,0.00,,,0.02,116,Wunderground v.1.15,2013-10-09 19:12:00,
2013-10-09 15:18:00,61.3,56.1,30.13,North,7,11.0,14.0,83,0.00,,,0.02,104,Wunderground v.1.15,2013-10-09 19:18:00,
2013-10-09 15:24:00,61.2,55.7,30.13,NNE,23,10.0,11.0,82,0.00,,,0.02,120,Wunderground v.1.15,2013-10-09 19:24:00,
2013-10-09 15:30:00,61.2,55.7,30.13,NNE,21,10.0,10.0,82,0.00,,,0.02,106,Wunderground v.1.15,2013-10-09 19:30:00,
2013-10-09 15:36:00,61.2,55.7,30.13,NNE,18,10.0,14.0,82,0.00,,,0.02,134,Wunderground v.1.15,2013-10-09 19:36:00,
2013-10-09 15:42:00,61.3,55.8,30.13,North,0,12.0,12.0,82,0.00,,,0.02,141,Wunderground v.1.15,2013-10-09 19:42:00,
2013-10-09 15:48:00,61.3,55.8,30.12,North,11,11.0,12.0,82,0.00,,,0.02,153,Wunderground v.1.15,2013-10-09 19:48:00,
2013-10-09 15:54:00,61.3,55.4,30.12,NNE,27,12.0,12.0,81,0.00,,,0.02,128,Wunderground v.1.15,2013-10-09 19:54:00,
2013-10-09 16:00:00,61.2,55.3,30.12,North,359,12.0,12.0,81,0.00,,,0.02,139,Wunderground v.1.15,2013-10-09 20:00:00,
2013-10-09 16:06:00,61.2,55.3,30.12,North,10,13.0,13.0,81,0.00,,,0.02,165,Wunderground v.1.15,2013-10-09 20:06:00,
2013-10-09 16:12:00,61.2,55.7,30.12,NE,54,12.0,16.0,82,0.00,,,0.02,160,Wunderground v.1.15,2013-10-09 20:12:00,
2013-10-09 16:18:00,61.2,55.3,30.12,NNW,346,10.0,16.0,81,0.00,,,0.02,158,Wunderground v.1.15,2013-10-09 20:18:00,
2013-10-09 16:24:00,61.2,55.3,30.12,NE,40,10.0,17.0,81,0.00,,,0.02,132,Wunderground v.1.15,2013-10-09 20:24:00,
2013-10-09 16:30:00,61.2,55.3,30.11,North,4,11.0,11.0,81,0.00,,,0.02,91,Wunderground v.1.15,2013-10-09 20:30:00,
2013-10-09 16:36:00,61.0,55.1,30.11,NNE,25,11.0,13.0,81,0.00,,,0.02,77,Wunderground v.1.15,2013-10-09 20:36:00,
2013-10-09 16:42:00,60.9,55.0,30.11,North,1,10.0,14.0,81,0.00,,,0.02,79,Wunderground v.1.15,2013-10-09 20:42:00,
2013-10-09 16:48:00,60.7,54.8,30.12,NW,313,11.0,17.0,81,0.00,,,0.02,67,Wunderground v.1.15,2013-10-09 20:48:00,
2013-10-09 16:54:00,60.5,55.0,30.12,North,0,13.0,14.0,82,0.00,,,0.02,72,Wunderground v.1.15,2013-10-09 20:54:00,
2013-10-09 17:00:00,60.4,55.2,30.11,North,3,11.0,11.0,83,0.00,,,0.02,63,Wunderground v.1.15,2013-10-09 21:00:00,
2013-10-09 17:06:00,60.4,55.5,30.11,NNE,18,9.0,17.0,84,0.00,,,0.02,69,Wunderground v.1.15,2013-10-09 21:06:00,
2013-10-09 17:12:00,60.1,55.2,30.11,NNE,17,11.0,11.0,84,0.00,,,0.02,63,Wunderground v.1.15,2013-10-09 21:12:00,
2013-10-09 17:18:00,59.9,55.1,30.11,North,353,10.0,14.0,84,0.00,,,0.02,56,Wunderground v.1.15,2013-10-09 21:18:00,
2013-10-09 17:24:00,59.6,55.1,30.11,NNW,336,11.0,16.0,85,0.00,,,0.02,42,Wunderground v.1.15,2013-10-09 21:24:00,
2013-10-09 17:30:00,59.5,55.0,30.12,NNE,25,11.0,11.0,85,0.00,,,0.02,32,Wunderground v.1.15,2013-10-09 21:30:00,
2013-10-09 17:36:00,59.3,55.1,30.12,North,10,11.0,12.0,86,0.00,,,0.02,26,Wunderground v.1.15,2013-10-09 21:36:00,
2013-10-09 17:42:00,59.3,55.4,30.12,North,359,9.0,10.0,87,0.00,,,0.02,25,Wunderground v.1.15,2013-10-09 21:42:00,
2013-10-09 17:48:00,59.2,55.3,30.12,NNE,24,10.0,14.0,87,0.00,,,0.02,25,Wunderground v.1.15,2013-10-09 21:48:00,
2013-10-09 17:54:00,59.0,55.1,30.12,NNE,13,10.0,17.0,87,0.00,,,0.02,28,Wunderground v.1.15,2013-10-09 21:54:00,
2013-10-09 18:00:00,59.0,55.1,30.12,North,0,10.0,10.0,87,0.00,,,0.02,23,Wunderground v.1.15,2013-10-09 22:00:00,
2013-10-09 18:06:00,58.9,55.0,30.12,North,3,10.0,13.0,87,0.00,,,0.02,23,Wunderground v.1.15,2013-10-09 22:06:00,
2013-10-09 18:12:00,58.9,55.4,30.12,North,359,10.0,10.0,88,0.00,,,0.02,23,Wunderground v.1.15,2013-10-09 22:12:00,
2013-10-09 18:18:00,58.9,55.4,30.12,NE,35,9.0,12.0,88,0.00,,,0.02,18,Wunderground v.1.15,2013-10-09 22:18:00,
2013-10-09 18:24:00,58.7,55.2,30.12,North,356,9.0,10.0,88,0.00,,,0.02,14,Wunderground v.1.15,2013-10-09 22:24:00,
2013-10-09 18:30:00,58.6,55.4,30.12,North,10,9.0,9.0,89,0.00,,,0.02,12,Wunderground v.1.15,2013-10-09 22:30:00,
2013-10-09 18:36:00,58.4,55.5,30.12,North,10,9.0,13.0,90,0.00,,,0.03,12,Wunderground v.1.15,2013-10-09 22:36:00,
2013-10-09 18:42:00,58.3,55.7,30.12,NW,309,9.0,9.0,91,0.00,,,0.03,9,Wunderground v.1.15,2013-10-09 22:42:00,
2013-10-09 18:48:00,58.1,55.8,30.11,NW,312,9.0,13.0,92,0.00,,,0.03,5,Wunderground v.1.15,2013-10-09 22:48:00,
2013-10-09 18:54:00,58.0,55.7,30.11,North,0,8.0,9.0,92,0.00,,,0.03,0,Wunderground v.1.15,2013-10-09 22:54:00,
2013-10-09 19:00:00,57.8,55.8,30.11,North,359,8.0,8.0,93,0.00,,,0.03,0,Wunderground v.1.15,2013-10-09 23:00:00,
2013-10-09 19:06:00,57.8,55.8,30.11,North,1,8.0,11.0,93,0.00,,,0.03,0,Wunderground v.1.15,2013-10-09 23:06:00,
2013-10-09 19:12:00,57.6,55.9,30.11,North,356,8.0,11.0,94,0.00,,,0.04,0,Wunderground v.1.15,2013-10-09 23:12:00,
2013-10-09 19:18:00,57.5,55.8,30.11,NNE,27,9.0,11.0,94,0.00,,,0.04,0,Wunderground v.1.15,2013-10-09 23:18:00,
2013-10-09 19:24:00,57.5,56.1,30.11,NNE,16,9.0,13.0,95,0.00,,,0.04,0,Wunderground v.1.15,2013-10-09 23:24:00,
2013-10-09 19:30:00,57.3,55.9,30.11,North,0,10.0,10.0,95,0.00,,,0.04,0,Wunderground v.1.15,2013-10-09 23:30:00,
2013-10-09 19:36:00,57.3,55.9,30.11,North,359,8.0,10.0,95,0.00,,,0.04,0,Wunderground v.1.15,2013-10-09 23:36:00,
2013-10-09 19:42:00,57.2,55.8,30.11,NNW,335,9.0,10.0,95,0.00,,,0.04,0,Wunderground v.1.15,2013-10-09 23:42:00,
2013-10-09 19:48:00,57.2,56.1,30.11,North,7,9.0,12.0,96,0.00,,,0.04,0,Wunderground v.1.15,2013-10-09 23:48:00,
2013-10-09 19:54:00,57.0,55.9,30.11,NNW,339,9.0,10.0,96,0.00,,,0.05,0,Wunderground v.1.15,2013-10-09 23:54:00,
2013-10-09 20:00:00,57.0,55.9,30.11,NNE,18,8.0,8.0,96,0.00,,,0.05,0,Wunderground v.1.15,2013-10-10 00:00:00,
2013-10-09 20:06:00,56.9,55.8,30.11,North,0,9.0,14.0,96,0.05,,,0.06,0,Wunderground v.1.15,2013-10-10 00:06:00,
2013-10-09 20:12:00,56.7,55.6,30.11,North,0,10.0,10.0,96,0.05,,,0.06,0,Wunderground v.1.15,2013-10-10 00:12:00,
2013-10-09 20:18:00,56.7,55.6,30.11,NNW,339,10.0,16.0,96,0.04,,,0.07,0,Wunderground v.1.15,2013-10-10 00:18:00,
2013-10-09 20:24:00,56.7,55.9,30.11,North,6,10.0,12.0,97,0.04,,,0.07,0,Wunderground v.1.15,2013-10-10 00:24:00,
2013-10-09 20:30:00,56.6,55.8,30.11,NNW,336,9.0,13.0,97,0.04,,,0.07,0,Wunderground v.1.15,2013-10-10 00:30:00,
2013-10-09 20:36:00,56.6,55.8,30.11,NE,41,10.0,17.0,97,0.00,,,0.07,0,Wunderground v.1.15,2013-10-10 00:36:00,
2013-10-09 20:42:00,56.6,55.8,30.11,North,7,9.0,9.0,97,0.00,,,0.08,0,Wunderground v.1.15,2013-10-10 00:42:00,
2013-10-09 20:48:00,56.5,55.7,30.11,WNW,292,8.0,9.0,97,0.00,,,0.08,0,Wunderground v.1.15,2013-10-10 00:48:00,
2013-10-09 20:54:00,56.5,55.7,30.11,North,0,9.0,12.0,97,0.00,,,0.09,0,Wunderground v.1.15,2013-10-10 00:54:00,
2013-10-09 21:02:00,56.3,55.5,30.10,North,0,10.0,10.0,97,0.00,,,0.09,0,Wunderground v.1.15,2013-10-10 01:02:00,
2013-10-09 21:08:00,56.3,55.5,30.10,North,8,10.0,14.0,97,0.00,,,0.09,0,Wunderground v.1.15,2013-10-10 01:08:00,
2013-10-09 21:14:00,56.3,55.5,30.10,North,0,10.0,10.0,97,0.00,,,0.09,0,Wunderground v.1.15,2013-10-10 01:14:00,
2013-10-09 21:20:00,56.2,55.4,30.10,North,0,9.0,13.0,97,0.00,,,0.09,0,Wunderground v.1.15,2013-10-10 01:20:00,
2013-10-09 21:26:00,56.2,55.4,30.10,North,356,10.0,13.0,97,0.00,,,0.09,0,Wunderground v.1.15,2013-10-10 01:26:00,
2013-10-09 21:32:00,56.2,55.4,30.10,North,6,11.0,11.0,97,0.00,,,0.09,0,Wunderground v.1.15,2013-10-10 01:32:00,
2013-10-09 21:38:00,56.0,55.2,30.10,North,1,11.0,12.0,97,0.00,,,0.09,0,Wunderground v.1.15,2013-10-10 01:38:00,
2013-10-09 21:44:00,56.0,55.2,30.10,NW,311,10.0,12.0,97,0.00,,,0.09,0,Wunderground v.1.15,2013-10-10 01:44:00,
2013-10-09 21:50:00,56.0,55.2,30.10,NNW,342,9.0,9.0,97,0.00,,,0.10,0,Wunderground v.1.15,2013-10-10 01:50:00,
2013-10-09 21:56:00,56.0,55.2,30.10,North,10,10.0,17.0,97,0.00,,,0.10,0,Wunderground v.1.15,2013-10-10 01:56:00,
2013-10-09 22:02:00,56.0,55.2,30.10,North,359,10.0,10.0,97,0.00,,,0.10,0,Wunderground v.1.15,2013-10-10 02:02:00,
2013-10-09 22:08:00,55.9,55.1,30.10,North,6,9.0,13.0,97,0.00,,,0.10,0,Wunderground v.1.15,2013-10-10 02:08:00,
2013-10-09 22:14:00,55.9,55.1,30.10,NW,305,11.0,14.0,97,0.00,,,0.10,0,Wunderground v.1.15,2013-10-10 02:14:00,
2013-10-09 22:21:00,55.9,55.1,30.10,NNE,23,9.0,9.0,97,0.00,,,0.10,0,Wunderground v.1.15,2013-10-10 02:21:00,
2013-10-09 22:26:00,55.9,55.1,30.10,North,359,10.0,17.0,97,0.00,,,0.10,0,Wunderground v.1.15,2013-10-10 02:26:00,
2013-10-09 22:32:00,55.9,55.1,30.10,North,10,11.0,11.0,97,0.00,,,0.10,0,Wunderground v.1.15,2013-10-10 02:32:00,
2013-10-09 22:38:00,55.7,54.9,30.10,North,4,10.0,12.0,97,0.00,,,0.10,0,Wunderground v.1.15,2013-10-10 02:38:00,
2013-10-09 22:44:00,55.7,54.9,30.10,NNE,24,9.0,10.0,97,0.00,,,0.10,0,Wunderground v.1.15,2013-10-10 02:44:00,
2013-10-09 22:51:00,55.7,54.9,30.10,North,359,9.0,12.0,97,0.00,,,0.10,0,Wunderground v.1.15,2013-10-10 02:51:00,
2013-10-09 22:56:00,55.7,54.9,30.10,North,356,9.0,14.0,97,0.00,,,0.10,0,Wunderground v.1.15,2013-10-10 02:56:00,
2013-10-09 23:02:00,55.6,54.8,30.09,North,359,9.0,10.0,97,0.00,,,0.10,0,Wunderground v.1.15,2013-10-10 03:02:00,
2013-10-09 23:08:00,55.6,55.0,30.09,NNW,344,9.0,13.0,98,0.00,,,0.10,0,Wunderground v.1.15,2013-10-10 03:08:00,
2013-10-09 23:14:00,55.6,55.0,30.09,NNE,16,10.0,11.0,98,0.00,,,0.10,0,Wunderground v.1.15,2013-10-10 03:14:00,
2013-10-09 23:20:00,55.6,55.0,30.09,North,359,9.0,12.0,98,0.00,,,0.10,0,Wunderground v.1.15,2013-10-10 03:20:00,
2013-10-09 23:26:00,55.6,55.0,30.09,North,356,9.0,12.0,98,0.00,,,0.10,0,Wunderground v.1.15,2013-10-10 03:26:00,
2013-10-09 23:32:00,55.4,54.8,30.08,North,8,10.0,14.0,98,0.00,,,0.10,0,Wunderground v.1.15,2013-10-10 03:32:00,
2013-10-09 23:38:00,55.4,54.8,30.08,North,359,10.0,17.0,98,0.00,,,0.10,0,Wunderground v.1.15,2013-10-10 03:38:00,
2013-10-09 23:44:00,55.4,54.8,30.08,North,4,8.0,12.0,98,0.00,,,0.10,0,Wunderground v.1.15,2013-10-10 03:44:00,
2013-10-09 23:50:00,55.4,54.8,30.08,North,359,7.0,7.0,98,0.00,,,0.10,0,Wunderground v.1.15,2013-10-10 03:50:00,
2013-10-09 23:56:00,55.4,54.8,30.08,North,0,9.0,12.0,98,0.00,,,0.10,0,Wunderground v.1.15,2013-10-10 03:56:00,